Regional Weather Roundup
Issued by NWS Newport/Morehead, NC

Current Version | Previous Version | Graphics & Text | Print | Product List | Glossary Off
Versions: 1 2 3 4 5 6 7 8 9 10 11 12 13 14 15 16 17 18 19 20 21 22 23 24 25 26 27 28 29 30 31 32 33 34 35 36 37 38 39 40 41 42 43 44 45 46 47 48 49 50

268
ASUS42 KMHX 242313
RWRMHX
WEATHER ROUNDUP FOR EASTERN NORTH CAROLINA
NATIONAL WEATHER SERVICE NEWPORT/MOREHEAD CITY NC
700 PM EDT WED AUG 24 2016

NOTE: "FAIR" INDICATES FEW OR NO CLOUDS BELOW 12,000 FEET
WITH NO SIGNIFICANT WEATHER AND/OR OBSTRUCTIONS TO VISIBILITY

NCZ015>017-031-032-045>047-102-103-250000-
NORTH COAST

CITY           SKY/WX    TMP DP  RH WIND       PRES   REMARKS
EDENTON        PTCLDY    79  68  67 E6        30.21S
ELIZABETH CITY CLEAR     79  66  64 E9        30.21S
KITTY HAWK     MOCLDY    81  74  79 NE5       30.20S
MANTEO         MOCLDY    79  71  78 NE6       30.21S

$$

NCZ045>047-081-094-103-104-250000-
CENTRAL COAST

CITY           SKY/WX    TMP DP  RH WIND       PRES   REMARKS
FRISCO         PTCLDY    79  68  69 E3        30.19S

$$

NCZ095-097-098-100-101-250000-
SOUTHERN COAST

CITY           SKY/WX    TMP DP  RH WIND       PRES   REMARKS
BEAUFORT       LGT RAIN  77  73  87 E3        30.19S
CEDAR ISLAND   NOT AVBL
JACKSONVILLE   MOCLDY    82  63  52 N8        30.18F
PINEY ISLAND   NOT AVBL
WILMINGTON     PTCLDY    83  62  49 NE7       30.19S


$$

NCZ011>013-027>030-043-044-078>080-089-090>093-098-250000-
COASTAL PLAIN

CITY           SKY/WX    TMP DP  RH WIND       PRES   REMARKS
AHOSKIE        PTCLDY    75  68  77 CALM      30.20F
CLINTON        CLOUDY    81  66  61 CALM      30.20S
ELIZABETHTOWN  PTCLDY    81  64  54 CALM      30.19S
GOLDSBORO      PTCLDY    81  61  49 NE8       30.19S
GREENVILLE     PTCLDY    82  63  51 E5        30.21S
HAVELOCK       CLOUDY    81  71  71 E5        30.20S
KENANSVILLE    NOT AVBL
KINSTON        CLOUDY    81  64  57 N3        30.20F
NEW BERN       MOCLDY    81  61  50 N6        30.20F
RICHLANDS      PTCLDY    79  67  66 CALM      30.20S
ROCKY MOUNT    CLOUDY    80  67  64 CALM      30.20F
WASHINGTON     CLOUDY    78  64  63 CALM      30.20S
WHITEVILLE     PTCLDY    79  64  60 CALM      30.18S

$$

AMZ130-135-150-152-154-156-158-170-250-252-270-ANZ085-086-088-633-658-670-250000-
MARINE OBSERVATIONS

STATION/POSITION TIME  TEMP    WIND        PRES    WAVE   SWELL
                       AIR SEA DIR/SP/G            HT/PER HT/PER
                 (UTC) (F)     (DEG/KT/KT) (MB)    (FT/S) (FT/S)
CHESAPEAKE LIGHT NOT AVBL
64 E VA BEACH    2250   79 81   90/  6/  8 1022.8    3/11   2/11
DUCK             2200   78 79   40/  6/  8 1022.4
2 E DUCK         2211      77                N/A     2/12   2/12
OREGON INLET     2200   80 78   30/  8/ 10 1022.7
13E OREGON INLT  2200      80                N/A     3/11   3/11
HATTERAS CG      2200   80 79  100/  5/  8 1022.2
DIAMOND BUOY     2250   81 85   80/  8/ 12 1022.3    3/ 7   3/ 7
CAPE LOOKOUT     2300   78     360/  9/ 10 1021.7
BEAUFORT LAB     2200   79 81   30/  7/ 10 1021.8
30 SE NEW RVR IN 2208   81 84   50/ 14/ 17 1021.9
30 SE NEW RVR IN 2225      84                N/A     3/ 5
27 SE WRIGHTSVLE 2208   82 84   10/ 10/ 14 1022.1
5 SE WRIGHTSVLE  2208   82 83   60/  6/ 10 1023.1
225 S CAPE HAT   2250   83 85   40/ 16/ 17 1019.2    5/11   2/11
41 SE CHARLESTON 2250   82 84   50/ 16/ 19 1020.8    5/ 6   2/ 8

$$




USA.gov is the U.S. government's official web portal to all federal, state and local government web resources and services.